EVA1902 WADD-AYPY

Flight info

Callsign EVA1902
Flight time 4h 12m
Altitude 35000
Route LEDOM W33 KPG J199 PEBTA B598 ESKIM DCT GUMBU GUMBU1
Aircraft B77L/H-SDE1E2E3FGHIJ2J3J4J5M1RWXY/LB1D1

Departure

Time 2026-04-28 15:41
Airport Denpasar I Gusti Ngurah Rai International Airport (WADD)

Arrival

Time 2026-04-28 19:54
Airport Port Moresby Jacksons International Airport (AYPY)
Time Latitude Longitude Altitude Speed Heading
2026-04-28 15:14 -8.74528 115.17443 37 ft 0 kts 358°
2026-04-28 15:29 -8.74534 115.17443 37 ft 4 kts 358°
2026-04-28 15:29 -8.74551 115.17443 35 ft 3 kts
2026-04-28 15:29 -8.74571 115.17441 36 ft 3 kts
2026-04-28 15:29 -8.74591 115.17440 33 ft 3 kts
2026-04-28 15:30 -8.74610 115.17440 36 ft 3 kts 355°
2026-04-28 15:30 -8.74627 115.17442 36 ft 2 kts 341°
2026-04-28 15:30 -8.74638 115.17447 35 ft 1 kts 317°
2026-04-28 15:30 -8.74644 115.17453 33 ft 1 kts 296°
2026-04-28 15:31 -8.74647 115.17461 34 ft 1 kts 278°
2026-04-28 15:31 -8.74648 115.17464 34 ft 0 kts 274°
2026-04-28 15:33 -8.74647 115.17459 34 ft 3 kts 274°
2026-04-28 15:33 -8.74650 115.17402 37 ft 13 kts 267°
2026-04-28 15:34 -8.74655 115.17290 37 ft 18 kts 268°
2026-04-28 15:34 -8.74661 115.17155 36 ft 21 kts 268°
2026-04-28 15:34 -8.74667 115.17000 36 ft 23 kts 268°
2026-04-28 15:34 -8.74674 115.16841 36 ft 23 kts 268°
2026-04-28 15:35 -8.74681 115.16681 37 ft 23 kts 268°
2026-04-28 15:35 -8.74694 115.16362 37 ft 23 kts 268°
2026-04-28 15:35 -8.74700 115.16204 37 ft 23 kts 267°
2026-04-28 15:36 -8.74707 115.16044 37 ft 23 kts 267°
2026-04-28 15:36 -8.74714 115.15885 37 ft 23 kts 267°
2026-04-28 15:36 -8.74721 115.15725 37 ft 23 kts 267°
2026-04-28 15:36 -8.74728 115.15566 37 ft 23 kts 267°
2026-04-28 15:37 -8.74729 115.15533 37 ft 0 kts 268°
2026-04-28 15:37 -8.74729 115.15530 37 ft 1 kts 268°
2026-04-28 15:37 -8.74729 115.15516 37 ft 3 kts 268°
2026-04-28 15:37 -8.74730 115.15493 37 ft 7 kts 268°
2026-04-28 15:38 -8.74756 115.15407 36 ft 12 kts 221°
2026-04-28 15:38 -8.74852 115.15395 33 ft 17 kts 168°
2026-04-28 15:38 -8.74892 115.15484 33 ft 13 kts 92°
2026-04-28 15:38 -8.74892 115.15493 33 ft 0 kts 90°
2026-04-28 15:39 -8.74892 115.15498 33 ft 2 kts 90°
2026-04-28 15:39 -8.74892 115.15523 33 ft 0 kts 87°
2026-04-28 15:40 -8.74891 115.15549 33 ft 25 kts 87°
2026-04-28 15:41 -8.74873 115.16013 34 ft 106 kts 88°
2026-04-28 15:41 -8.74830 115.17003 37 ft 176 kts 87°
2026-04-28 15:41 -8.74774 115.18282 735 ft 178 kts 87°
2026-04-28 15:41 -8.74728 115.19520 1552 ft 177 kts 88°
2026-04-28 15:42 -8.74682 115.20794 1981 ft 186 kts 88°
2026-04-28 15:42 -8.74640 115.22124 2415 ft 192 kts 91°
2026-04-28 15:42 -8.74925 115.23462 2750 ft 201 kts 108°
2026-04-28 15:42 -8.75373 115.24861 3027 ft 219 kts 107°
2026-04-28 15:43 -8.75823 115.26395 3304 ft 239 kts 106°
2026-04-28 15:43 -8.76285 115.28084 3668 ft 256 kts 105°
2026-04-28 15:43 -8.76741 115.29855 4287 ft 265 kts 104°
2026-04-28 15:43 -8.77184 115.31682 4990 ft 268 kts 103°
2026-04-28 15:44 -8.77597 115.33498 5782 ft 268 kts 102°
2026-04-28 15:44 -8.77988 115.35342 6575 ft 268 kts 102°
2026-04-28 15:44 -8.78359 115.37190 7326 ft 270 kts 101°
2026-04-28 15:44 -8.78740 115.39095 7813 ft 281 kts 102°
2026-04-28 15:45 -8.79137 115.41046 8501 ft 284 kts 102°
2026-04-28 15:45 -8.79533 115.43012 9214 ft 286 kts 101°
2026-04-28 15:45 -8.79927 115.44992 9897 ft 289 kts 101°
2026-04-28 15:45 -8.80323 115.47001 10485 ft 296 kts 101°
2026-04-28 15:46 -8.80737 115.49120 10690 ft 319 kts 101°
2026-04-28 15:46 -8.81181 115.51403 10888 ft 342 kts 101°
2026-04-28 15:46 -8.81652 115.53841 11099 ft 364 kts 101°
2026-04-28 15:46 -8.82146 115.56406 11654 ft 376 kts 101°
2026-04-28 15:47 -8.82643 115.58994 12372 ft 383 kts 101°
2026-04-28 15:47 -8.83153 115.61651 13239 ft 386 kts 101°
2026-04-28 15:47 -8.83666 115.64330 14060 ft 390 kts 101°
2026-04-28 15:47 -8.84184 115.67039 14840 ft 395 kts 101°
2026-04-28 15:48 -8.84708 115.69777 15594 ft 399 kts 101°
2026-04-28 15:48 -8.85238 115.72554 16325 ft 404 kts 101°
2026-04-28 15:48 -8.85774 115.75357 17044 ft 408 kts 101°
2026-04-28 15:48 -8.86314 115.78189 17745 ft 412 kts 101°
2026-04-28 15:49 -8.86860 115.81050 18426 ft 416 kts 101°
2026-04-28 15:49 -8.87404 115.83898 19062 ft 420 kts 101°
2026-04-28 15:49 -8.87961 115.86817 19719 ft 425 kts 101°
2026-04-28 15:49 -8.88522 115.89763 20341 ft 429 kts 101°
2026-04-28 15:50 -8.89089 115.92736 20952 ft 433 kts 101°
2026-04-28 15:50 -8.89660 115.95737 21546 ft 436 kts 101°
2026-04-28 15:50 -8.90238 115.98770 22134 ft 440 kts 101°
2026-04-28 15:50 -8.90819 116.01824 22701 ft 444 kts 101°
2026-04-28 15:51 -8.91405 116.04904 23247 ft 448 kts 101°
2026-04-28 15:51 -8.91995 116.08010 23786 ft 451 kts 101°
2026-04-28 15:51 -8.92589 116.11136 24312 ft 455 kts 101°
2026-04-28 15:51 -8.93189 116.14296 24827 ft 458 kts 101°
2026-04-28 15:52 -8.93792 116.17472 25324 ft 462 kts 101°
2026-04-28 15:52 -8.94399 116.20671 25823 ft 465 kts 101°
2026-04-28 15:52 -8.95011 116.23900 26285 ft 469 kts 101°
2026-04-28 15:52 -8.95627 116.27145 26744 ft 472 kts 101°
2026-04-28 15:53 -8.96246 116.30416 27193 ft 475 kts 101°
2026-04-28 15:53 -8.96870 116.33709 27628 ft 478 kts 101°
2026-04-28 15:53 -8.97489 116.36981 28046 ft 481 kts 101°
2026-04-28 15:53 -8.98120 116.40316 28454 ft 484 kts 101°
2026-04-28 15:54 -8.98755 116.43675 28838 ft 487 kts 101°
2026-04-28 15:54 -8.99393 116.47050 29201 ft 490 kts 101°
2026-04-28 15:54 -9.00034 116.50441 29558 ft 492 kts 101°
2026-04-28 15:54 -9.00678 116.53853 29998 ft 492 kts 101°
2026-04-28 15:55 -9.01318 116.57247 30495 ft 491 kts 101°
2026-04-28 15:55 -9.01957 116.60633 31000 ft 489 kts 101°
2026-04-28 15:55 -9.02592 116.64005 31462 ft 488 kts 101°
2026-04-28 15:55 -9.03229 116.67384 31879 ft 487 kts 101°
2026-04-28 15:56 -9.03862 116.70747 32283 ft 486 kts 101°
2026-04-28 15:56 -9.04486 116.74063 32675 ft 485 kts 101°
2026-04-28 15:56 -9.05118 116.77423 33076 ft 485 kts 101°
2026-04-28 15:56 -9.05748 116.80771 33453 ft 484 kts 101°
2026-04-28 15:57 -9.06377 116.84117 33813 ft 483 kts 101°
2026-04-28 15:57 -9.07004 116.87460 34162 ft 482 kts 101°
2026-04-28 15:57 -9.07630 116.90792 34500 ft 482 kts 101°
2026-04-28 15:57 -9.08254 116.94119 34815 ft 481 kts 101°
2026-04-28 15:58 -9.08879 116.97454 34956 ft 485 kts 101°
2026-04-28 15:58 -9.09508 117.00809 35010 ft 486 kts 101°
2026-04-28 15:58 -9.10763 117.07511 35003 ft 481 kts 101°
2026-04-28 15:59 -9.11995 117.14097 35003 ft 478 kts 101°
2026-04-28 15:59 -9.13231 117.20710 35000 ft 477 kts 101°
2026-04-28 16:00 -9.14466 117.27321 35003 ft 478 kts 101°
2026-04-28 16:00 -9.15698 117.33930 35005 ft 478 kts 101°
2026-04-28 16:01 -9.16931 117.40550 35000 ft 479 kts 101°
2026-04-28 16:01 -9.18157 117.47137 35002 ft 480 kts 101°
2026-04-28 16:02 -9.19393 117.53784 35002 ft 481 kts 101°
2026-04-28 16:02 -9.20630 117.60444 35006 ft 481 kts 101°
2026-04-28 16:03 -9.21858 117.67108 35002 ft 482 kts 100°
2026-04-28 16:03 -9.23033 117.73794 35007 ft 482 kts 100°
2026-04-28 16:04 -9.24184 117.80434 35005 ft 482 kts 100°
2026-04-28 16:04 -9.25349 117.87134 35005 ft 482 kts 100°
2026-04-28 16:05 -9.26515 117.93812 35005 ft 482 kts 100°
2026-04-28 16:05 -9.27681 118.00490 35006 ft 481 kts 100°
2026-04-28 16:06 -9.28846 118.07168 35001 ft 481 kts 100°
2026-04-28 16:06 -9.30000 118.13794 35004 ft 481 kts 100°
2026-04-28 16:07 -9.31161 118.20465 34998 ft 481 kts 100°
2026-04-28 16:08 -9.32898 118.30464 35002 ft 480 kts 100°
2026-04-28 16:08 -9.34055 118.37133 35003 ft 480 kts 100°
2026-04-28 16:09 -9.35787 118.47133 35006 ft 480 kts 100°
2026-04-28 16:10 -9.37509 118.57092 34999 ft 480 kts 100°
2026-04-28 16:10 -9.39235 118.67089 35001 ft 481 kts 100°
2026-04-28 16:11 -9.41535 118.80438 34999 ft 481 kts 100°
2026-04-28 16:12 -9.43258 118.90460 35000 ft 481 kts 100°
2026-04-28 16:13 -9.44968 119.00426 35001 ft 481 kts 100°
2026-04-28 16:14 -9.47255 119.13778 34994 ft 481 kts 100°
2026-04-28 16:15 -9.49545 119.27178 35002 ft 483 kts 99°
2026-04-28 16:15 -9.50691 119.33895 35008 ft 484 kts 99°
2026-04-28 16:16 -9.52411 119.43994 35000 ft 485 kts 99°
2026-04-28 16:17 -9.54121 119.54053 34996 ft 485 kts 99°
2026-04-28 16:17 -9.55266 119.60798 35005 ft 485 kts 99°
2026-04-28 16:18 -9.56409 119.67541 35003 ft 485 kts 99°
2026-04-28 16:18 -9.57552 119.74286 34997 ft 485 kts 99°
2026-04-28 16:19 -9.58691 119.81020 35001 ft 485 kts 99°
2026-04-28 16:19 -9.59830 119.87762 35004 ft 485 kts 99°
2026-04-28 16:20 -9.60967 119.94500 35001 ft 485 kts 99°
2026-04-28 16:20 -9.62101 120.01231 34999 ft 485 kts 99°
2026-04-28 16:21 -9.63227 120.07920 34999 ft 484 kts 99°
2026-04-28 16:21 -9.64359 120.14656 34999 ft 484 kts 99°
2026-04-28 16:22 -9.65490 120.21389 35004 ft 484 kts 99°
2026-04-28 16:22 -9.66616 120.28104 35005 ft 483 kts 99°
2026-04-28 16:23 -9.67706 120.34819 35004 ft 482 kts 99°
2026-04-28 16:23 -9.68714 120.41529 35003 ft 481 kts 98°
2026-04-28 16:24 -9.69712 120.48232 35002 ft 480 kts 98°
2026-04-28 16:24 -9.70716 120.54922 35007 ft 480 kts 98°
2026-04-28 16:25 -9.71720 120.61570 34997 ft 480 kts 98°
2026-04-28 16:25 -9.72730 120.68259 34995 ft 480 kts 98°
2026-04-28 16:26 -9.73738 120.74949 35007 ft 480 kts 98°
2026-04-28 16:26 -9.74746 120.81647 35009 ft 480 kts 98°
2026-04-28 16:27 -9.75582 120.87210 35002 ft 480 kts 98°
2026-04-28 16:28 -9.77089 120.97255 35004 ft 481 kts 98°
2026-04-28 16:28 -9.78093 121.03961 34995 ft 481 kts 98°
2026-04-28 16:29 -9.79598 121.14025 35005 ft 481 kts 98°
2026-04-28 16:30 -9.81101 121.24101 35002 ft 481 kts 98°
2026-04-28 16:30 -9.82101 121.30812 35004 ft 481 kts 98°
2026-04-28 16:31 -9.83101 121.37537 34999 ft 481 kts 98°
2026-04-28 16:31 -9.84092 121.44211 35006 ft 481 kts 98°
2026-04-28 16:32 -9.85089 121.50933 34997 ft 481 kts 98°
2026-04-28 16:32 -9.86582 121.61015 35006 ft 481 kts 98°
2026-04-28 16:33 -9.87406 121.66591 34998 ft 481 kts 98°
2026-04-28 16:33 -9.88564 121.74438 35003 ft 481 kts 98°
2026-04-28 16:34 -9.89554 121.81151 35001 ft 481 kts 98°
2026-04-28 16:34 -9.90538 121.87837 34998 ft 481 kts 98°
2026-04-28 16:35 -9.91525 121.94551 34998 ft 481 kts 98°
2026-04-28 16:35 -9.92511 122.01271 35005 ft 481 kts 98°
2026-04-28 16:36 -9.93488 122.07940 34995 ft 481 kts 98°
2026-04-28 16:36 -9.94477 122.14692 35002 ft 481 kts 98°
2026-04-28 16:37 -9.95451 122.21358 35007 ft 481 kts 98°
2026-04-28 16:38 -9.96920 122.31428 35001 ft 481 kts 98°
2026-04-28 16:38 -9.97897 122.38139 35004 ft 481 kts 98°
2026-04-28 16:39 -9.98874 122.44857 34999 ft 481 kts 98°
2026-04-28 16:39 -9.99850 122.51581 35002 ft 481 kts 98°
2026-04-28 16:40 -10.00824 122.58298 35001 ft 481 kts 98°
2026-04-28 16:40 -10.01797 122.65015 35004 ft 481 kts 98°
2026-04-28 16:41 -10.02763 122.71698 35008 ft 481 kts 98°
2026-04-28 16:41 -10.03734 122.78418 34997 ft 481 kts 98°
2026-04-28 16:42 -10.04702 122.85138 35003 ft 481 kts 98°
2026-04-28 16:42 -10.05669 122.91857 34999 ft 481 kts 98°
2026-04-28 16:43 -10.06635 122.98575 35004 ft 481 kts 98°
2026-04-28 16:43 -10.07599 123.05294 35005 ft 481 kts 98°
2026-04-28 16:44 -10.08562 123.12010 35003 ft 481 kts 98°
2026-04-28 16:44 -10.09524 123.18729 35002 ft 481 kts 98°
2026-04-28 16:45 -10.10484 123.25451 34995 ft 481 kts 98°
2026-04-28 16:45 -10.11438 123.32135 34998 ft 481 kts 98°
2026-04-28 16:46 -10.12396 123.38862 35000 ft 481 kts 98°
2026-04-28 16:46 -10.13352 123.45579 35002 ft 481 kts 98°
2026-04-28 16:47 -10.14307 123.52302 34998 ft 481 kts 98°
2026-04-28 16:47 -10.15262 123.59040 35005 ft 481 kts 98°
2026-04-28 16:48 -10.16208 123.65717 34998 ft 481 kts 98°
2026-04-28 16:48 -10.17023 123.72462 34995 ft 481 kts 95°
2026-04-28 16:49 -10.17565 123.79236 35006 ft 481 kts 94°
2026-04-28 16:49 -10.18082 123.86018 35007 ft 482 kts 94°
2026-04-28 16:50 -10.18617 123.92805 35000 ft 482 kts 95°
2026-04-28 16:50 -10.19165 123.99597 35007 ft 483 kts 95°
2026-04-28 16:51 -10.19714 124.06396 34998 ft 483 kts 95°
2026-04-28 16:51 -10.20257 124.13145 35008 ft 483 kts 95°
2026-04-28 16:52 -10.20803 124.19953 35007 ft 482 kts 95°
2026-04-28 16:52 -10.21347 124.26748 35003 ft 482 kts 95°
2026-04-28 16:53 -10.21884 124.33486 35006 ft 481 kts 95°
2026-04-28 16:53 -10.22422 124.40253 34995 ft 481 kts 95°
2026-04-28 16:54 -10.22959 124.47018 35003 ft 481 kts 95°
2026-04-28 16:54 -10.23494 124.53785 35005 ft 480 kts 95°
2026-04-28 16:55 -10.24027 124.60546 35005 ft 480 kts 95°
2026-04-28 16:55 -10.24557 124.67271 34999 ft 480 kts 95°
2026-04-28 16:56 -10.25087 124.74031 35005 ft 481 kts 94°
2026-04-28 16:56 -10.25617 124.80797 35004 ft 481 kts 94°
2026-04-28 16:57 -10.26146 124.87571 35005 ft 481 kts 94°
2026-04-28 16:57 -10.26673 124.94345 34996 ft 481 kts 94°
2026-04-28 16:58 -10.27199 125.01121 34999 ft 481 kts 94°
2026-04-28 16:58 -10.27724 125.07894 34998 ft 481 kts 94°
2026-04-28 16:59 -10.28247 125.14672 35008 ft 481 kts 94°
2026-04-28 16:59 -10.28766 125.21403 35004 ft 481 kts 94°
2026-04-28 17:00 -10.29286 125.28181 35004 ft 481 kts 94°
2026-04-28 17:00 -10.29806 125.34963 35001 ft 481 kts 94°
2026-04-28 17:01 -10.30323 125.41741 35002 ft 481 kts 94°
2026-04-28 17:01 -10.30840 125.48522 35005 ft 481 kts 94°
2026-04-28 17:02 -10.31355 125.55301 34996 ft 481 kts 94°
2026-04-28 17:02 -10.31865 125.62027 35004 ft 481 kts 94°
2026-04-28 17:03 -10.32636 125.72193 35005 ft 481 kts 94°
2026-04-28 17:03 -10.33147 125.78963 34998 ft 481 kts 94°
2026-04-28 17:04 -10.33911 125.89133 35003 ft 481 kts 94°
2026-04-28 17:05 -10.34670 125.99262 35003 ft 481 kts 94°
2026-04-28 17:06 -10.35428 126.09432 34996 ft 481 kts 94°
2026-04-28 17:06 -10.36183 126.19604 35002 ft 481 kts 94°
2026-04-28 17:07 -10.36684 126.26384 35008 ft 481 kts 94°
2026-04-28 17:07 -10.37184 126.33159 35004 ft 481 kts 94°
2026-04-28 17:08 -10.37683 126.39936 34996 ft 481 kts 94°
2026-04-28 17:08 -10.38180 126.46715 35005 ft 481 kts 94°
2026-04-28 17:09 -10.38672 126.53449 35006 ft 481 kts 94°
2026-04-28 17:09 -10.39166 126.60224 35003 ft 481 kts 94°
2026-04-28 17:10 -10.39659 126.67001 35000 ft 481 kts 94°
2026-04-28 17:10 -10.40150 126.73776 34996 ft 481 kts 94°
2026-04-28 17:11 -10.40640 126.80552 35001 ft 481 kts 94°
2026-04-28 17:11 -10.41128 126.87331 35004 ft 481 kts 94°
2026-04-28 17:12 -10.41615 126.94111 34996 ft 481 kts 94°
2026-04-28 17:12 -10.42101 127.00893 34996 ft 481 kts 94°
2026-04-28 17:13 -10.42586 127.07686 35006 ft 481 kts 94°
2026-04-28 17:13 -10.43066 127.14431 34998 ft 481 kts 94°
2026-04-28 17:14 -10.43507 127.21205 35005 ft 481 kts 94°
2026-04-28 17:14 -10.43929 127.28000 35003 ft 481 kts 94°
2026-04-28 17:15 -10.44350 127.34771 35003 ft 481 kts 94°
2026-04-28 17:15 -10.44706 127.40443 35002 ft 481 kts 94°
2026-04-28 17:16 -10.45132 127.47216 35001 ft 481 kts 94°
2026-04-28 17:16 -10.45557 127.54005 34996 ft 481 kts 94°
2026-04-28 17:17 -10.45981 127.60794 34996 ft 481 kts 94°
2026-04-28 17:17 -10.46401 127.67561 35006 ft 481 kts 94°
2026-04-28 17:18 -10.46822 127.74351 35000 ft 481 kts 94°
2026-04-28 17:18 -10.47240 127.81121 35005 ft 481 kts 94°
2026-04-28 17:19 -10.47658 127.87907 35005 ft 481 kts 94°
2026-04-28 17:19 -10.48072 127.94671 35002 ft 481 kts 94°
2026-04-28 17:20 -10.48418 128.00328 35000 ft 481 kts 94°
2026-04-28 17:20 -10.48902 128.08274 35004 ft 481 kts 94°
2026-04-28 17:21 -10.49312 128.15026 35006 ft 481 kts 94°
2026-04-28 17:22 -10.49927 128.25221 35002 ft 481 kts 93°
2026-04-28 17:22 -10.50334 128.31987 35002 ft 481 kts 93°
2026-04-28 17:23 -10.50944 128.42169 34996 ft 481 kts 93°
2026-04-28 17:23 -10.51348 128.48952 34996 ft 481 kts 93°
2026-04-28 17:24 -10.51752 128.55755 34996 ft 481 kts 93°
2026-04-28 17:24 -10.52153 128.62528 34999 ft 481 kts 93°
2026-04-28 17:25 -10.52753 128.72712 35005 ft 481 kts 93°
2026-04-28 17:26 -10.53149 128.79471 35004 ft 481 kts 93°
2026-04-28 17:26 -10.53547 128.86281 34996 ft 481 kts 93°
2026-04-28 17:27 -10.53941 128.93052 34996 ft 481 kts 93°
2026-04-28 17:27 -10.54335 128.99833 34996 ft 481 kts 93°
2026-04-28 17:28 -10.54726 129.06607 35005 ft 481 kts 93°
2026-04-28 17:28 -10.55312 129.16786 35005 ft 481 kts 93°
2026-04-28 17:29 -10.55699 129.23553 34996 ft 481 kts 93°
2026-04-28 17:30 -10.56281 129.33772 35005 ft 481 kts 93°
2026-04-28 17:30 -10.56858 129.43951 35004 ft 481 kts 93°
2026-04-28 17:31 -10.57431 129.54115 35007 ft 481 kts 93°
2026-04-28 17:32 -10.57999 129.64271 34996 ft 481 kts 93°
2026-04-28 17:32 -10.58379 129.71073 35005 ft 481 kts 93°
2026-04-28 17:33 -10.58755 129.77851 35007 ft 481 kts 93°
2026-04-28 17:33 -10.59068 129.83518 34999 ft 481 kts 93°
2026-04-28 17:34 -10.59506 129.91457 34996 ft 481 kts 93°
2026-04-28 17:34 -10.59876 129.98201 35003 ft 481 kts 93°
2026-04-28 17:35 -10.60250 130.05035 35005 ft 481 kts 93°
2026-04-28 17:35 -10.60618 130.11794 35004 ft 481 kts 93°
2026-04-28 17:36 -10.60984 130.18555 34997 ft 481 kts 93°
2026-04-28 17:36 -10.61351 130.25338 34996 ft 481 kts 93°
2026-04-28 17:37 -10.61718 130.32161 35005 ft 481 kts 93°
2026-04-28 17:37 -10.62082 130.38950 35008 ft 481 kts 93°
2026-04-28 17:38 -10.62442 130.45706 35005 ft 481 kts 93°
2026-04-28 17:38 -10.62805 130.52535 35004 ft 481 kts 93°
2026-04-28 17:39 -10.63164 130.59312 34996 ft 481 kts 93°
2026-04-28 17:40 -10.63699 130.69468 34998 ft 481 kts 93°
2026-04-28 17:40 -10.64055 130.76268 35005 ft 481 kts 93°
2026-04-28 17:41 -10.64410 130.83063 35001 ft 481 kts 93°
2026-04-28 17:41 -10.64762 130.89829 34996 ft 481 kts 93°
2026-04-28 17:42 -10.65113 130.96621 35000 ft 481 kts 93°
2026-04-28 17:42 -10.65465 131.03441 35008 ft 481 kts 93°
2026-04-28 17:43 -10.65810 131.10181 35007 ft 481 kts 93°
2026-04-28 17:43 -10.66159 131.17006 35004 ft 481 kts 93°
2026-04-28 17:44 -10.66504 131.23788 35000 ft 481 kts 93°
2026-04-28 17:44 -10.66848 131.30571 35005 ft 481 kts 93°
2026-04-28 17:45 -10.67191 131.37360 35005 ft 481 kts 93°
2026-04-28 17:45 -10.67532 131.44160 35000 ft 481 kts 93°
2026-04-28 17:46 -10.67870 131.50906 35003 ft 481 kts 93°
2026-04-28 17:46 -10.68208 131.57705 34996 ft 481 kts 93°
2026-04-28 17:47 -10.68545 131.64497 35006 ft 481 kts 93°
2026-04-28 17:47 -10.68881 131.71297 35004 ft 481 kts 93°
2026-04-28 17:48 -10.69215 131.78094 34999 ft 481 kts 93°
2026-04-28 17:48 -10.69545 131.84851 35003 ft 481 kts 93°
2026-04-28 17:49 -10.69876 131.91646 34996 ft 481 kts 93°
2026-04-28 17:49 -10.70206 131.98453 34998 ft 481 kts 93°
2026-04-28 17:50 -10.70535 132.05250 35004 ft 481 kts 93°
2026-04-28 17:50 -10.70861 132.12049 35005 ft 481 kts 92°
2026-04-28 17:51 -10.71185 132.18809 35003 ft 481 kts 92°
2026-04-28 17:51 -10.71509 132.25609 35005 ft 481 kts 92°
2026-04-28 17:52 -10.71831 132.32404 35004 ft 481 kts 92°
2026-04-28 17:52 -10.72312 132.42607 34996 ft 481 kts 92°
2026-04-28 17:53 -10.72630 132.49403 35004 ft 481 kts 92°
2026-04-28 17:53 -10.72946 132.56164 35004 ft 481 kts 92°
2026-04-28 17:54 -10.73261 132.62961 34996 ft 481 kts 92°
2026-04-28 17:54 -10.73576 132.69769 35003 ft 481 kts 92°
2026-04-28 17:55 -10.73889 132.76583 35005 ft 481 kts 92°
2026-04-28 17:55 -10.74199 132.83336 34996 ft 481 kts 92°
2026-04-28 17:56 -10.74508 132.90131 35005 ft 481 kts 92°
2026-04-28 17:56 -10.74817 132.96933 34996 ft 481 kts 92°
2026-04-28 17:57 -10.75123 133.03733 35005 ft 481 kts 92°
2026-04-28 17:57 -10.75429 133.10530 35006 ft 481 kts 92°
2026-04-28 17:58 -10.75732 133.17329 35005 ft 481 kts 92°
2026-04-28 17:58 -10.76035 133.24129 34996 ft 481 kts 92°
2026-04-28 17:59 -10.76336 133.30931 35000 ft 481 kts 92°
2026-04-28 17:59 -10.76635 133.37728 34997 ft 481 kts 92°
2026-04-28 18:00 -10.76931 133.44482 34996 ft 481 kts 92°
2026-04-28 18:00 -10.77229 133.51321 35005 ft 481 kts 92°
2026-04-28 18:01 -10.77522 133.58079 34996 ft 481 kts 92°
2026-04-28 18:01 -10.77816 133.64882 35006 ft 481 kts 92°
2026-04-28 18:02 -10.78108 133.71680 35005 ft 481 kts 92°
2026-04-28 18:02 -10.78397 133.78435 35005 ft 481 kts 92°
2026-04-28 18:03 -10.78686 133.85236 35004 ft 481 kts 92°
2026-04-28 18:03 -10.78973 133.92041 35004 ft 481 kts 92°
2026-04-28 18:04 -10.79211 133.97690 35005 ft 481 kts 92°
2026-04-28 18:04 -10.79496 134.04494 35004 ft 481 kts 92°
2026-04-28 18:05 -10.79779 134.11293 34999 ft 481 kts 92°
2026-04-28 18:05 -10.80061 134.18093 35005 ft 481 kts 92°
2026-04-28 18:06 -10.80341 134.24893 35004 ft 481 kts 92°
2026-04-28 18:06 -10.80618 134.31649 34998 ft 481 kts 92°
2026-04-28 18:07 -10.80896 134.38444 34996 ft 481 kts 92°
2026-04-28 18:07 -10.81171 134.45241 35006 ft 481 kts 92°
2026-04-28 18:08 -10.81446 134.52043 35007 ft 481 kts 92°
2026-04-28 18:08 -10.81719 134.58845 35006 ft 481 kts 92°
2026-04-28 18:09 -10.81990 134.65649 35005 ft 481 kts 92°
2026-04-28 18:09 -10.82260 134.72447 34996 ft 481 kts 92°
2026-04-28 18:10 -10.82529 134.79250 35004 ft 481 kts 92°
2026-04-28 18:10 -10.82794 134.86003 35002 ft 481 kts 92°
2026-04-28 18:11 -10.83059 134.92802 35002 ft 481 kts 92°
2026-04-28 18:11 -10.83323 134.99602 34996 ft 481 kts 92°
2026-04-28 18:12 -10.83586 135.06405 35002 ft 481 kts 92°
2026-04-28 18:12 -10.83847 135.13212 34996 ft 481 kts 92°
2026-04-28 18:13 -10.84106 135.20015 35005 ft 481 kts 92°
2026-04-28 18:13 -10.84363 135.26784 35004 ft 481 kts 92°
2026-04-28 18:14 -10.84620 135.33585 35003 ft 481 kts 92°
2026-04-28 18:14 -10.84875 135.40396 35004 ft 481 kts 92°
2026-04-28 18:15 -10.85129 135.47208 35005 ft 481 kts 92°
2026-04-28 18:15 -10.85379 135.53958 34999 ft 481 kts 92°
2026-04-28 18:16 -10.85630 135.60761 35001 ft 481 kts 92°
2026-04-28 18:16 -10.85878 135.67558 35005 ft 481 kts 92°
2026-04-28 18:17 -10.86126 135.74363 35005 ft 481 kts 92°
2026-04-28 18:17 -10.86372 135.81171 35004 ft 481 kts 92°
2026-04-28 18:18 -10.86617 135.87972 34996 ft 481 kts 92°
2026-04-28 18:18 -10.86796 135.93626 34996 ft 481 kts 91°
2026-04-28 18:19 -10.87021 136.01543 35004 ft 481 kts 91°
2026-04-28 18:19 -10.87214 136.08348 34996 ft 481 kts 91°
2026-04-28 18:20 -10.87408 136.15114 35005 ft 481 kts 91°
2026-04-28 18:20 -10.87604 136.21922 34996 ft 481 kts 91°
2026-04-28 18:21 -10.87798 136.28725 35002 ft 481 kts 91°
2026-04-28 18:21 -10.87990 136.35534 34996 ft 481 kts 91°
2026-04-28 18:22 -10.88181 136.42337 35005 ft 481 kts 91°
2026-04-28 18:22 -10.88371 136.49150 35007 ft 481 kts 91°
2026-04-28 18:23 -10.88558 136.55921 35007 ft 481 kts 91°
2026-04-28 18:23 -10.88745 136.62729 34996 ft 481 kts 91°
2026-04-28 18:24 -10.88898 136.68385 35004 ft 481 kts 91°
2026-04-28 18:24 -10.89113 136.76341 35003 ft 481 kts 91°
2026-04-28 18:25 -10.89295 136.83146 35001 ft 481 kts 91°
2026-04-28 18:26 -10.89565 136.93351 35006 ft 481 kts 91°
2026-04-28 18:26 -10.89742 137.00112 34997 ft 481 kts 91°
2026-04-28 18:27 -10.89919 137.06916 35003 ft 481 kts 91°
2026-04-28 18:27 -10.90094 137.13722 34996 ft 481 kts 91°
2026-04-28 18:28 -10.90268 137.20526 35005 ft 481 kts 91°
2026-04-28 18:28 -10.90440 137.27333 35004 ft 481 kts 91°
2026-04-28 18:29 -10.90611 137.34138 34996 ft 481 kts 91°
2026-04-28 18:29 -10.90779 137.40902 35004 ft 481 kts 91°
2026-04-28 18:30 -10.90947 137.47749 35006 ft 481 kts 91°
2026-04-28 18:30 -10.91113 137.54513 34997 ft 481 kts 91°
2026-04-28 18:31 -10.91277 137.61319 35005 ft 481 kts 91°
2026-04-28 18:31 -10.91440 137.68117 34996 ft 481 kts 91°
2026-04-28 18:32 -10.91602 137.74930 34996 ft 481 kts 91°
2026-04-28 18:32 -10.91762 137.81739 34997 ft 481 kts 91°
2026-04-28 18:33 -10.91920 137.88499 34996 ft 481 kts 91°
2026-04-28 18:33 -10.92077 137.95304 34999 ft 481 kts 91°
2026-04-28 18:34 -10.92233 138.02103 35004 ft 481 kts 91°
2026-04-28 18:34 -10.92387 138.08901 35007 ft 481 kts 91°
2026-04-28 18:35 -10.92539 138.15709 34996 ft 481 kts 91°
2026-04-28 18:35 -10.92690 138.22508 35006 ft 481 kts 91°
2026-04-28 18:36 -10.92840 138.29312 34996 ft 481 kts 91°
2026-04-28 18:36 -10.92988 138.36123 34997 ft 481 kts 91°
2026-04-28 18:37 -10.93135 138.42930 35006 ft 481 kts 91°
2026-04-28 18:37 -10.93279 138.49689 34997 ft 481 kts 91°
2026-04-28 18:38 -10.93423 138.56498 35006 ft 481 kts 91°
2026-04-28 18:38 -10.93565 138.63312 34996 ft 481 kts 91°
2026-04-28 18:39 -10.93706 138.70116 34997 ft 481 kts 91°
2026-04-28 18:39 -10.93845 138.76916 34997 ft 481 kts 91°
2026-04-28 18:40 -10.93982 138.83723 35005 ft 481 kts 91°
2026-04-28 18:40 -10.94118 138.90485 35005 ft 481 kts 91°
2026-04-28 18:41 -10.94252 138.97287 34997 ft 481 kts 91°
2026-04-28 18:41 -10.94385 139.04098 35005 ft 481 kts 91°
2026-04-28 18:42 -10.94517 139.10901 35006 ft 481 kts 91°
2026-04-28 18:42 -10.94647 139.17703 34997 ft 481 kts 91°
2026-04-28 18:43 -10.94776 139.24511 35006 ft 481 kts 91°
2026-04-28 18:43 -10.94904 139.31318 35005 ft 481 kts 91°
2026-04-28 18:44 -10.95031 139.38119 34997 ft 481 kts 91°
2026-04-28 18:44 -10.95219 139.48323 34997 ft 481 kts 91°
2026-04-28 18:45 -10.95341 139.55086 35005 ft 481 kts 91°
2026-04-28 18:45 -10.95463 139.61888 35000 ft 481 kts 91°
2026-04-28 18:46 -10.95583 139.68693 34997 ft 481 kts 91°
2026-04-28 18:46 -10.95701 139.75496 35005 ft 481 kts 91°
2026-04-28 18:47 -10.95818 139.82300 35005 ft 481 kts 91°
2026-04-28 18:47 -10.95934 139.89112 34997 ft 481 kts 91°
2026-04-28 18:48 -10.96047 139.95873 34996 ft 481 kts 91°
2026-04-28 18:48 -10.96160 140.02679 35006 ft 481 kts 91°
2026-04-28 18:49 -10.96234 140.07188 34996 ft 481 kts 91°
2026-04-28 18:49 -10.96346 140.16281 35006 ft 481 kts 88°
2026-04-28 18:50 -10.95551 140.23024 35009 ft 480 kts 79°
2026-04-28 18:50 -10.94343 140.29710 35007 ft 480 kts 79°
2026-04-28 18:51 -10.93347 140.35267 34999 ft 481 kts 79°
2026-04-28 18:51 -10.91985 140.43062 35001 ft 481 kts 80°
2026-04-28 18:52 -10.91021 140.48638 35004 ft 481 kts 80°
2026-04-28 18:52 -10.89861 140.55346 35002 ft 481 kts 80°
2026-04-28 18:53 -10.88700 140.62051 35006 ft 481 kts 80°
2026-04-28 18:53 -10.87536 140.68756 35004 ft 481 kts 80°
2026-04-28 18:54 -10.86377 140.75417 35002 ft 481 kts 80°
2026-04-28 18:54 -10.85209 140.82126 34995 ft 481 kts 80°
2026-04-28 18:55 -10.84041 140.88827 35003 ft 481 kts 80°
2026-04-28 18:55 -10.82871 140.95527 34995 ft 481 kts 80°
2026-04-28 18:56 -10.81701 141.02220 35005 ft 481 kts 80°
2026-04-28 18:56 -10.80536 141.08876 35003 ft 481 kts 80°
2026-04-28 18:57 -10.79363 141.15570 34999 ft 481 kts 80°
2026-04-28 18:57 -10.78188 141.22263 35004 ft 481 kts 80°
2026-04-28 18:58 -10.77012 141.28957 35000 ft 481 kts 80°
2026-04-28 18:58 -10.75833 141.35660 35000 ft 481 kts 80°
2026-04-28 18:59 -10.74662 141.42308 35002 ft 481 kts 79°
2026-04-28 18:59 -10.73479 141.49011 35001 ft 481 kts 79°
2026-04-28 19:00 -10.72297 141.55702 35003 ft 481 kts 79°
2026-04-28 19:00 -10.71120 141.62359 35006 ft 481 kts 79°
2026-04-28 19:01 -10.69935 141.69051 35001 ft 481 kts 79°
2026-04-28 19:01 -10.68749 141.75742 34998 ft 481 kts 79°
2026-04-28 19:02 -10.67561 141.82430 35000 ft 481 kts 79°
2026-04-28 19:02 -10.66373 141.89119 35004 ft 481 kts 79°
2026-04-28 19:03 -10.65182 141.95811 34998 ft 481 kts 79°
2026-04-28 19:03 -10.63990 142.02495 35001 ft 481 kts 79°
2026-04-28 19:04 -10.62797 142.09184 35002 ft 481 kts 79°
2026-04-28 19:04 -10.61603 142.15867 35002 ft 481 kts 79°
2026-04-28 19:05 -10.60407 142.22554 35003 ft 481 kts 79°
2026-04-28 19:05 -10.59217 142.29204 34995 ft 481 kts 79°
2026-04-28 19:06 -10.58097 142.34733 35002 ft 481 kts 77°
2026-04-28 19:06 -10.56322 142.42471 35004 ft 481 kts 77°
2026-04-28 19:07 -10.54809 142.49087 35005 ft 481 kts 77°
2026-04-28 19:07 -10.53322 142.55713 35002 ft 481 kts 77°
2026-04-28 19:08 -10.51847 142.62339 35003 ft 481 kts 77°
2026-04-28 19:08 -10.50381 142.68924 34994 ft 481 kts 77°
2026-04-28 19:09 -10.48902 142.75551 35003 ft 481 kts 77°
2026-04-28 19:09 -10.47421 142.82180 35003 ft 481 kts 77°
2026-04-28 19:10 -10.45937 142.88813 34999 ft 481 kts 77°
2026-04-28 19:10 -10.44463 142.95391 34998 ft 481 kts 77°
2026-04-28 19:11 -10.42977 143.02019 34998 ft 481 kts 77°
2026-04-28 19:11 -10.41492 143.08638 35004 ft 481 kts 77°
2026-04-28 19:12 -10.40003 143.15266 34998 ft 481 kts 77°
2026-04-28 19:12 -10.38514 143.21887 35003 ft 480 kts 77°
2026-04-28 19:13 -10.37025 143.28505 34998 ft 480 kts 77°
2026-04-28 19:13 -10.35534 143.35122 34999 ft 480 kts 77°
2026-04-28 19:14 -10.34052 143.41691 35003 ft 480 kts 77°
2026-04-28 19:14 -10.32559 143.48303 35002 ft 480 kts 77°
2026-04-28 19:15 -10.31063 143.54926 35000 ft 480 kts 77°
2026-04-28 19:15 -10.29818 143.60430 34998 ft 480 kts 77°
2026-04-28 19:16 -10.28067 143.68165 35002 ft 480 kts 77°
2026-04-28 19:16 -10.26567 143.74783 35004 ft 480 kts 77°
2026-04-28 19:17 -10.25077 143.81349 35005 ft 480 kts 77°
2026-04-28 19:17 -10.23575 143.87968 34997 ft 480 kts 77°
2026-04-28 19:18 -10.22070 143.94582 34997 ft 480 kts 77°
2026-04-28 19:18 -10.20552 144.01203 35001 ft 480 kts 77°
2026-04-28 19:19 -10.19032 144.07812 35004 ft 480 kts 77°
2026-04-28 19:19 -10.17521 144.14380 35003 ft 480 kts 77°
2026-04-28 19:20 -10.16003 144.20982 35004 ft 480 kts 77°
2026-04-28 19:20 -10.14483 144.27586 35005 ft 480 kts 77°
2026-04-28 19:21 -10.12961 144.34190 34997 ft 480 kts 77°
2026-04-28 19:21 -10.11438 144.40793 35002 ft 480 kts 77°
2026-04-28 19:22 -10.10170 144.46288 35003 ft 480 kts 77°
2026-04-28 19:22 -10.08396 144.53962 35001 ft 480 kts 77°
2026-04-28 19:23 -10.06870 144.60561 35004 ft 480 kts 77°
2026-04-28 19:23 -10.05342 144.67162 35002 ft 480 kts 77°
2026-04-28 19:24 -10.03814 144.73756 35004 ft 480 kts 77°
2026-04-28 19:24 -10.02282 144.80358 34998 ft 480 kts 77°
2026-04-28 19:25 -10.00750 144.86956 35002 ft 480 kts 77°
2026-04-28 19:25 -9.99216 144.93557 35002 ft 480 kts 77°
2026-04-28 19:26 -9.97682 145.00153 35006 ft 480 kts 77°
2026-04-28 19:26 -9.96145 145.06752 35001 ft 480 kts 77°
2026-04-28 19:27 -9.94607 145.13353 35002 ft 480 kts 77°
2026-04-28 19:27 -9.93080 145.19901 34995 ft 480 kts 76°
2026-04-28 19:28 -9.92303 145.23225 34423 ft 488 kts 76°
2026-04-28 19:28 -9.91524 145.26562 33916 ft 484 kts 76°
2026-04-28 19:28 -9.90752 145.29866 33388 ft 478 kts 76°
2026-04-28 19:28 -9.89989 145.33132 32907 ft 472 kts 76°
2026-04-28 19:29 -9.89232 145.36367 32405 ft 467 kts 76°
2026-04-28 19:29 -9.88736 145.38487 32083 ft 464 kts 76°
2026-04-28 19:29 -9.87746 145.42717 31448 ft 458 kts 76°
2026-04-28 19:29 -9.87014 145.45843 30960 ft 453 kts 76°
2026-04-28 19:30 -9.86299 145.48897 30493 ft 449 kts 76°
2026-04-28 19:30 -9.85581 145.51960 30027 ft 445 kts 76°
2026-04-28 19:30 -9.84868 145.54998 29545 ft 440 kts 76°
2026-04-28 19:30 -9.84161 145.58014 29082 ft 436 kts 76°
2026-04-28 19:31 -9.83462 145.60995 28607 ft 432 kts 76°
2026-04-28 19:31 -9.82768 145.63949 28140 ft 428 kts 76°
2026-04-28 19:31 -9.82082 145.66871 27685 ft 425 kts 76°
2026-04-28 19:31 -9.81400 145.69773 27230 ft 421 kts 76°
2026-04-28 19:32 -9.80724 145.72650 26775 ft 417 kts 76°
2026-04-28 19:32 -9.80053 145.75503 26332 ft 414 kts 76°
2026-04-28 19:32 -9.79388 145.78332 25887 ft 410 kts 76°
2026-04-28 19:32 -9.78730 145.81130 25450 ft 407 kts 76°
2026-04-28 19:33 -9.78074 145.83917 25017 ft 404 kts 76°
2026-04-28 19:33 -9.77432 145.86641 24590 ft 400 kts 76°
2026-04-28 19:33 -9.76590 145.89315 24156 ft 397 kts 66°
2026-04-28 19:33 -9.75340 145.91795 23745 ft 393 kts 58°
2026-04-28 19:34 -9.73781 145.94054 23323 ft 390 kts 50°
2026-04-28 19:34 -9.72054 145.96160 22916 ft 387 kts 50°
2026-04-28 19:34 -9.70327 145.98238 22502 ft 384 kts 50°
2026-04-28 19:34 -9.68604 146.00312 22090 ft 381 kts 50°
2026-04-28 19:35 -9.66905 146.02366 21677 ft 379 kts 50°
2026-04-28 19:35 -9.65224 146.04407 21274 ft 376 kts 50°
2026-04-28 19:35 -9.63558 146.06436 20869 ft 373 kts 50°
2026-04-28 19:35 -9.61909 146.08449 20466 ft 370 kts 50°
2026-04-28 19:36 -9.60271 146.10450 20064 ft 367 kts 50°
2026-04-28 19:36 -9.58645 146.12438 19679 ft 364 kts 50°
2026-04-28 19:36 -9.57037 146.14403 19327 ft 359 kts 50°
2026-04-28 19:36 -9.55450 146.16344 18950 ft 356 kts 50°
2026-04-28 19:37 -9.53875 146.18268 18573 ft 354 kts 50°
2026-04-28 19:37 -9.53369 146.18887 18449 ft 354 kts 50°
2026-04-28 19:37 -9.50741 146.22098 17809 ft 360 kts 50°
2026-04-28 19:37 -9.49124 146.24072 17417 ft 366 kts 50°
2026-04-28 19:38 -9.47495 146.26062 16989 ft 367 kts 50°
2026-04-28 19:38 -9.45872 146.28044 16573 ft 364 kts 50°
2026-04-28 19:38 -9.44258 146.30015 16158 ft 361 kts 50°
2026-04-28 19:38 -9.42663 146.31963 15752 ft 357 kts 50°
2026-04-28 19:39 -9.41084 146.33891 15353 ft 353 kts 50°
2026-04-28 19:39 -9.39522 146.35796 14953 ft 350 kts 50°
2026-04-28 19:39 -9.38049 146.37717 14545 ft 342 kts 59°
2026-04-28 19:39 -9.37236 146.39935 14167 ft 332 kts 78°
2026-04-28 19:40 -9.36936 146.41441 13949 ft 329 kts 78°
2026-04-28 19:40 -9.36297 146.44455 13448 ft 331 kts 77°
2026-04-28 19:40 -9.35791 146.46757 13084 ft 339 kts 77°
2026-04-28 19:40 -9.35270 146.49103 12703 ft 343 kts 77°
2026-04-28 19:41 -9.34743 146.51463 12305 ft 343 kts 77°
2026-04-28 19:41 -9.34388 146.53049 12033 ft 340 kts 77°
2026-04-28 19:41 -9.33874 146.55341 11654 ft 336 kts 77°
2026-04-28 19:41 -9.33356 146.57643 11271 ft 332 kts 77°
2026-04-28 19:42 -9.32845 146.59912 10893 ft 328 kts 77°
2026-04-28 19:42 -9.32343 146.62143 10683 ft 319 kts 77°
2026-04-28 19:42 -9.31858 146.64294 10538 ft 308 kts 77°
2026-04-28 19:42 -9.31390 146.66372 10400 ft 297 kts 77°
2026-04-28 19:43 -9.30940 146.68368 10272 ft 285 kts 77°
2026-04-28 19:43 -9.30507 146.70285 10151 ft 274 kts 77°
2026-04-28 19:43 -9.30092 146.72128 9998 ft 264 kts 77°
2026-04-28 19:43 -9.29684 146.73935 9746 ft 270 kts 77°
2026-04-28 19:44 -9.29259 146.75816 9474 ft 277 kts 77°
2026-04-28 19:44 -9.28827 146.77729 9170 ft 279 kts 77°
2026-04-28 19:44 -9.28397 146.79635 8860 ft 275 kts 77°
2026-04-28 19:44 -9.27975 146.81504 8550 ft 270 kts 77°
2026-04-28 19:45 -9.27560 146.83339 8264 ft 265 kts 77°
2026-04-28 19:45 -9.27153 146.85141 7979 ft 260 kts 77°
2026-04-28 19:45 -9.26753 146.86911 7703 ft 257 kts 77°
2026-04-28 19:45 -9.26351 146.88686 7440 ft 262 kts 77°
2026-04-28 19:46 -9.25941 146.90503 7156 ft 268 kts 77°
2026-04-28 19:46 -9.25524 146.92348 6869 ft 269 kts 77°
2026-04-28 19:46 -9.25108 146.94189 6558 ft 265 kts 77°
2026-04-28 19:46 -9.24701 146.95991 6265 ft 260 kts 77°
2026-04-28 19:47 -9.24291 146.97747 5975 ft 252 kts 72°
2026-04-28 19:47 -9.23547 146.99315 5757 ft 248 kts 58°
2026-04-28 19:47 -9.22591 147.00822 5512 ft 259 kts 57°
2026-04-28 19:47 -9.21623 147.02347 5222 ft 261 kts 57°
2026-04-28 19:48 -9.20676 147.03899 4915 ft 256 kts 63°
2026-04-28 19:48 -9.20300 147.05622 4612 ft 253 kts 97°
2026-04-28 19:48 -9.20899 147.07269 4343 ft 252 kts 126°
2026-04-28 19:48 -9.22139 147.08512 4087 ft 251 kts 146°
2026-04-28 19:49 -9.23643 147.09419 3811 ft 253 kts 151°
2026-04-28 19:49 -9.25178 147.10300 3524 ft 255 kts 150°
2026-04-28 19:49 -9.26682 147.11212 3388 ft 247 kts 149°
2026-04-28 19:49 -9.28107 147.12094 3287 ft 232 kts 149°
2026-04-28 19:50 -9.30671 147.13685 2910 ft 200 kts 149°
2026-04-28 19:50 -9.31797 147.14384 2674 ft 182 kts 149°
2026-04-28 19:50 -9.32833 147.15027 2420 ft 166 kts 149°
2026-04-28 19:51 -9.33805 147.15630 2247 ft 163 kts 149°
2026-04-28 19:51 -9.34756 147.16221 2015 ft 156 kts 149°
2026-04-28 19:51 -9.35656 147.16779 1841 ft 151 kts 149°
2026-04-28 19:51 -9.36553 147.17336 1632 ft 154 kts 149°
2026-04-28 19:52 -9.37466 147.17903 1424 ft 153 kts 149°
2026-04-28 19:52 -9.38372 147.18465 1213 ft 152 kts 149°
2026-04-28 19:52 -9.39270 147.19023 1011 ft 151 kts 149°
2026-04-28 19:52 -9.40170 147.19580 817 ft 150 kts 149°
2026-04-28 19:53 -9.41070 147.20131 603 ft 151 kts 149°
2026-04-28 19:53 -9.41963 147.20687 406 ft 150 kts 149°
2026-04-28 19:53 -9.42849 147.21243 228 ft 150 kts 149°
2026-04-28 19:53 -9.43730 147.21782 134 ft 140 kts 148°
2026-04-28 19:54 -9.44486 147.22256 126 ft 113 kts 148°
2026-04-28 19:54 -9.44892 147.22505 126 ft 42 kts 149°
2026-04-28 19:54 -9.45087 147.22627 127 ft 21 kts 148°
2026-04-28 19:54 -9.45174 147.22697 131 ft 8 kts 203°
2026-04-28 19:55 -9.45160 147.22670 128 ft 5 kts 327°
2026-04-28 19:55 -9.45125 147.22647 130 ft 6 kts 327°
2026-04-28 19:55 -9.45062 147.22610 129 ft 17 kts 331°
2026-04-28 19:55 -9.44917 147.22523 127 ft 31 kts 329°
2026-04-28 19:56 -9.44701 147.22388 126 ft 38 kts 328°
2026-04-28 19:56 -9.44530 147.22280 128 ft 20 kts 328°
2026-04-28 19:56 -9.44501 147.22174 127 ft 19 kts 239°
2026-04-28 19:56 -9.44568 147.22060 125 ft 19 kts 239°
2026-04-28 19:57 -9.44638 147.21946 123 ft 19 kts 238°
2026-04-28 19:57 -9.44693 147.21838 132 ft 15 kts 271°
2026-04-28 19:57 -9.44621 147.21769 126 ft 15 kts 322°
2026-04-28 19:57 -9.44629 147.21709 127 ft 9 kts 237°
2026-04-28 19:58 -9.44634 147.21701 123 ft 0 kts 239°